Weather History for Nenana, AK

Change the Weather History Date:

Sunday, March 31, 2013

  Actual Average Record
Temperature  
Mean Temperature 36 °F -  
Max Temperature 54 °F 33 °F 57 °F (2014)
Min Temperature 19 °F 4 °F -4 °F (2007)
Degree Days  
Heating Degree Days 28    
Moisture  
Dew Point 18 °F    
Average Humidity 67    
Maximum Humidity 93    
Minimum Humidity 43    
Precipitation  
Precipitation 0.00 in - - ()
Sea Level Pressure  
Sea Level Pressure 30.20 in    
Wind  
Wind Speed 1 mph (WNW)    
Max Wind Speed 9 mph    
Max Gust Speed -    
Visibility 9 miles    
Events Snow    
Averages and records for this station are not official NWS values.
T = Trace of Precipitation, MM = Missing Value Source: NWS Daily Summary

Daily Weather History Graph

Daily Weather History Graph

Search for Another Location

Airport:

Trip Planner

Search our weather history database for the weather conditions in past years. The results will help you decide how hot, cold, wet, or windy it might be!

Date:

Astronomy

Mar. 31, 2013 Rise Set
Actual Time 7:15 AM AKDT 8:47 PM AKDT
Civil Twilight 6:24 AM AKDT 9:37 PM AKDT
Nautical Twilight 5:19 AM AKDT 10:43 PM AKDT
Astronomical Twilight 3:53 AM AKDT 12:12 AM AKDT
Moon 2:47 AM AKDT (3/31) 8:25 AM AKDT (3/31)
Length of Visible Light 15h 12m
Length of Day
13h 31m
Waning Gibbous, 76% of the Moon is Illuminated
Mar 31
Waning Gibbous
Apr 2
Last Quarter
Apr 10
New
Apr 18
First Quarter
Apr 25
Full

Hourly Weather History & Observations

Time (AKDT) Temp. Windchill Dew Point Humidity Pressure Visibility Wind Dir Wind Speed Gust Speed Precip Events Conditions
12:53 AM 19.9 °F - 12.9 °F 74% 30.22 in 10.0 mi Calm Calm - N/A   Mostly Cloudy
1:53 AM 19.9 °F - 10.9 °F 68% 30.22 in 10.0 mi Calm Calm - N/A   Scattered Clouds
2:53 AM 17.1 °F - 10.0 °F 74% 30.23 in 10.0 mi Calm Calm - N/A   Mostly Cloudy
3:53 AM 15.1 °F - 8.1 °F 74% 30.23 in 10.0 mi Calm Calm - N/A   Mostly Cloudy
4:53 AM 15.1 °F - 8.1 °F 74% 30.24 in 10.0 mi Calm Calm - N/A   Overcast
5:53 AM 12.9 °F - 8.1 °F 81% 30.25 in 10.0 mi Calm Calm - N/A   Overcast
6:53 AM 10.9 °F - 6.1 °F 81% 30.25 in 10.0 mi Calm Calm - N/A   Overcast
7:53 AM 10.9 °F 2.9 °F 5.0 °F 77% 30.26 in 10.0 mi South 4.6 mph - N/A   Overcast
8:53 AM 15.1 °F 9.4 °F 7.0 °F 70% 30.25 in 10.0 mi East 3.5 mph - N/A   Overcast
9:53 AM 19.9 °F - 10.9 °F 68% 30.26 in 10.0 mi Calm Calm - N/A   Overcast
10:53 AM 25.0 °F - 12.0 °F 58% 30.26 in 10.0 mi Calm Calm - N/A   Overcast
11:53 AM 30.0 °F - 12.9 °F 49% 30.25 in 10.0 mi Calm Calm - N/A   Mostly Cloudy
12:53 PM 33.1 °F - 14.0 °F 46% 30.25 in 10.0 mi Calm Calm - N/A   Mostly Cloudy
1:53 PM 34.0 °F - 16.0 °F 48% 30.24 in 10.0 mi Calm Calm - N/A   Mostly Cloudy
2:53 PM 36.0 °F - 16.0 °F 44% 30.22 in 10.0 mi Calm Calm - N/A   Overcast
3:53 PM 37.9 °F - 17.1 °F 43% 30.21 in 10.0 mi Calm Calm - N/A   Mostly Cloudy
4:53 PM 39.9 °F - 21.0 °F 47% 30.19 in 10.0 mi Calm Calm - N/A   Mostly Cloudy
5:53 PM 39.9 °F - 21.0 °F 47% 30.18 in 10.0 mi Calm Calm - N/A   Overcast
6:53 PM 39.0 °F 36.8 °F 21.0 °F 49% 30.17 in 10.0 mi West 3.5 mph - N/A   Overcast
7:53 PM 37.9 °F 35.5 °F 23.0 °F 55% 30.17 in 10.0 mi Variable 3.5 mph - N/A   Overcast
8:53 PM 35.1 °F - 24.1 °F 64% 30.16 in 10.0 mi Calm Calm - N/A   Overcast
9:53 PM 33.1 °F 28.7 °F 25.0 °F 72% 30.17 in 10.0 mi NW 4.6 mph - N/A   Overcast
10:53 PM 30.9 °F 24.3 °F 27.0 °F 85% 30.16 in 5.0 mi NW 6.9 mph - 0.00 in Snow Light Snow
11:22 PM 30.2 °F - 28.4 °F 93% 30.13 in 3.0 mi Calm Calm - 0.00 in Snow Light Snow
11:50 PM 30.2 °F - 28.4 °F 93% 30.13 in 7.0 mi Calm Calm - 0.00 in Snow Light Snow
11:53 PM 30.9 °F 27.5 °F 28.0 °F 89% 30.16 in 7.0 mi WNW 3.5 mph - 0.00 in   Overcast